Theta_e
347 343 346 344 347 347 348 346 347 346 344 341 337 346 349 349 345 341 344 350 349 351 349 349 349 350 345 349 348 347 347 346 346 343 343 346 351 349 350 350 346 346 351
349 345 345 340 343 346 347 346 346 344 339 338 345 349 351 351 349 343 343 349 351 349 350 350 350 348 351 348 346 347 346 347 347 348 347 347 349 350 352 342 344 348 349
344 346 344 344 340 344 346 346 347 348 342 342 344 348 345 344 346 343 341 345 350 350 350 350 350 350 350 348 349 347 346 348 349 348 347 347 348 349 349 352 351 351 348
348 347 344 337 338 341 345 345 349 347 348 345 342 344 347 344 345 349 349 349 350 349 349 350 350 349 350 350 350 351 350 349 347 348 348 347 349 349 350 350 349 350 350
349 346 343 343 336 340 344 346 349 349 349 343 343 342 343 347 348 349 349 350 349 349 349 350 350 350 349 345 347 349 350 349 349 348 349 349 348 349 349 349 350 348 348
351 347 345 344 342 337 346 348 342 343 344 346 341 344 348 348 347 346 344 343 342 347 350 350 351 348 346 344 343 343 343 344 346 348 349 348 348 348 348 348 348 348 348
351 348 349 345 345 343 339 340 346 346 347 343 339 343 339 339 341 341 343 342 343 343 343 343 342 349 349 349 348 343 344 345 344 344 344 345 346 346 346 346 347 346 347
349 352 348 345 345 346 343 339 346 347 340 341 339 339 342 342 343 337 341 343 338 342 340 339 348 349 350 347 347 348 348 349 346 345 345 344 344 344 345 344 344 345 345
347 347 347 344 347 351 348 342 343 345 340 339 343 341 338 337 335 343 341 339 346 349 347 347 348 348 347 341 341 346 346 347 346 344 341 335 332 333 338 341 344 346 346
346 344 345 344 345 345 346 343 338 338 341 343 343 339 337 336 341 345 345 348 349 349 346 345 340 334 335 332 332 342 342 341 341 341 336 333 332 332 332 336 340 343 343
352 347 345 346 344 345 345 345 341 342 345 341 343 339 338 339 344 341 344 343 341 340 342 342 342 342 337 336 337 337 340 339 338 338 338 337 336 337 339 341 337 339 341
349 347 346 342 348 349 346 342 340 342 344 342 341 345 342 345 344 344 331 331 337 339 342 340 342 340 334 334 339 340 339 340 341 339 336 334 334 335 335 339 337 337 336
353 344 343 342 348 339 342 344 335 339 345 345 346 347 348 348 344 331 336 338 337 335 340 339 330 327 327 327 325 324 329 337 337 335 333 333 333 334 335 336 333 333 332
354 354 350 342 340 346 345 343 346 346 345 345 346 348 347 341 340 341 338 339 337 334 332 331 331 332 331 330 329 330 330 332 332 332 332 331 332 333 334 336 335 335 333
356 355 354 352 351 350 348 349 349 348 347 348 349 344 337 339 341 342 342 340 339 338 334 334 335 334 334 333 332 332 332 332 332 332 332 332 332 335 331 330 336 334 334
356 355 354 354 349 350 350 347 347 347 344 347 340 339 342 342 341 341 337 337 337 334 332 335 335 334 332 331 331 332 333 332 332 332 333 334 331 331 333 333 336 334 334
354 355 354 351 350 351 350 349 348 348 344 336 336 337 338 338 339 339 339 338 334 332 332 334 334 332 331 330 329 329 329 331 329 329 330 330 327 327 330 334 335 334 331
349 350 352 352 353 351 351 349 347 345 339 338 338 339 341 341 334 333 333 332 332 332 332 333 331 330 330 329 331 329 327 328 328 327 328 328 329 329 331 331 330 329 328
341 340 344 351 350 348 346 345 339 340 341 342 342 341 337 331 331 331 331 332 334 333 333 331 329 329 330 329 329 328 327 328 327 327 327 327 327 327 327 328 329 329 329
340 337 346 349 347 346 343 339 339 342 341 341 335 333 330 328 325 324 325 326 332 332 330 330 330 330 329 329 327 327 326 327 326 326 326 326 326 326 326 327 327 329 329
337 341 340 349 347 343 338 340 341 340 336 333 333 335 326 325 331 331 332 332 332 330 330 331 331 329 327 327 326 325 327 326 325 325 325 325 326 326 326 327 327 326 326
340 337 334 344 344 339 340 341 338 334 332 333 333 328 325 324 331 332 332 332 331 331 330 330 329 328 327 325 325 325 326 326 325 324 324 326 326 325 325 325 324 324 323
343 344 343 341 340 341 342 339 335 333 333 332 332 330 325 328 332 332 332 331 331 330 330 328 327 327 327 324 325 325 325 325 324 324 325 324 324 323 323 323 322 321 320
336 340 343 341 342 341 339 336 334 333 333 333 333 334 333 332 332 332 330 330 331 330 329 327 327 325 325 326 326 325 324 324 324 324 323 323 323 322 322 321 321 319 319
337 336 337 335 337 339 338 334 333 333 333 334 334 334 334 333 332 331 330 330 330 329 329 327 326 325 323 318 324 324 323 322 324 324 325 324 324 323 323 322 322 322 319
341 339 338 335 332 336 335 333 334 334 333 334 334 335 335 334 333 332 331 331 330 329 328 327 326 325 321 321 320 315 315 315 316 321 322 321 321 321 320 321 321 321 321
Wind_Speed
19 16 18 19 18 18 16 17 16 16 17 19 15 14 14 13 13 13 12 11 9 8 7 8 7 9 8 9 7 9 10 11 13 13 12 12 13 12 12 14 15 15 12
21 20 19 20 20 18 18 17 17 17 18 18 16 15 13 13 13 13 14 14 14 11 10 10 10 9 11 10 11 12 12 13 15 16 14 14 15 13 14 16 17 15 16
24 22 20 20 21 20 19 18 17 16 18 19 19 16 15 14 12 13 14 14 15 13 12 13 13 13 13 12 13 13 13 13 15 15 17 15 15 14 14 16 16 15 17
26 23 23 23 24 22 21 20 18 18 15 18 20 18 16 14 13 12 12 12 13 14 15 16 16 16 16 15 15 15 15 17 17 19 18 18 17 16 17 17 16 15 16
28 28 25 23 24 24 23 20 20 18 16 16 16 16 18 15 14 15 14 14 15 15 14 15 15 16 19 18 16 15 17 17 16 19 19 18 18 17 20 18 18 17 17
28 30 26 26 24 24 22 20 22 22 20 17 18 16 15 15 16 18 18 18 17 16 16 15 15 18 20 19 20 21 22 22 23 20 20 21 21 22 22 22 22 19 20
29 29 27 25 24 23 23 24 22 21 18 18 18 18 20 19 20 18 19 19 20 19 18 18 17 14 17 16 18 18 21 22 23 24 26 26 26 25 25 25 23 24 22
29 27 29 28 24 22 22 23 20 18 20 20 20 20 18 19 17 15 20 22 20 17 19 18 16 15 15 17 16 16 16 16 18 20 20 21 22 22 23 25 25 26 27
30 29 29 31 26 21 22 21 21 21 21 20 15 11 12 11 14 15 17 20 17 15 15 14 13 13 15 16 16 14 15 14 16 18 22 22 23 24 25 25 22 24 25
30 33 31 29 29 30 25 22 24 23 20 19 22 19 17 19 15 15 15 13 13 11 11 11 11 11 13 14 14 12 14 14 13 16 20 21 22 22 22 23 22 22 23
26 30 31 29 30 26 23 22 20 17 17 20 17 19 17 16 16 15 16 15 12 10 9 10 11 16 15 16 17 17 17 17 19 20 17 17 16 17 15 17 19 18 19
26 30 31 26 21 22 27 18 18 21 17 18 16 17 17 17 17 16 15 14 12 11 10 10 14 18 18 18 19 21 21 22 21 17 19 19 18 16 14 17 16 15 16
27 30 31 24 22 16 18 21 24 28 24 20 16 15 14 15 18 15 13 13 13 12 11 14 17 16 17 17 17 20 22 24 19 20 21 20 18 18 20 16 17 15 16
27 26 25 26 24 22 23 26 26 24 22 24 20 15 13 14 13 13 14 13 13 14 15 13 16 17 17 17 17 17 16 13 16 19 19 19 18 18 17 15 15 15 12
23 24 24 23 24 21 22 22 21 21 20 19 15 14 13 13 13 14 12 9 10 12 14 12 12 13 14 15 15 15 14 13 14 16 15 15 16 14 17 16 16 16 12
22 22 21 21 23 21 23 25 25 20 21 19 18 16 13 16 13 14 15 16 17 17 16 12 14 15 17 15 14 13 13 14 12 11 11 11 11 10 11 11 13 12 10
23 21 21 21 21 22 20 20 22 23 20 20 18 17 16 13 13 15 17 17 17 18 16 14 15 16 16 17 14 12 12 10 13 12 11 11 12 12 10 8 9 10 13
17 17 18 18 20 20 19 20 20 19 19 19 18 16 13 13 13 14 15 17 16 17 15 14 15 15 16 13 9 11 12 12 12 13 12 12 12 11 11 12 11 13 16
21 22 18 18 18 18 18 18 17 16 15 14 14 14 13 11 12 14 16 16 12 13 13 14 14 14 11 10 11 12 13 13 14 13 13 13 13 14 14 14 15 14 14
20 20 21 17 18 18 16 16 17 15 14 13 9 9 12 10 10 13 14 14 11 10 10 12 12 11 13 13 13 14 14 13 12 13 13 13 12 12 11 10 10 10 9
22 22 21 17 17 18 17 18 16 15 14 13 12 12 9 8 7 7 7 8 7 7 9 9 10 10 11 11 11 11 9 10 11 11 11 10 10 9 9 7 6 6 6
16 20 21 19 16 18 18 18 17 16 15 14 12 12 10 7 6 6 7 7 7 7 6 7 6 7 10 8 7 6 5 5 8 7 8 7 6 4 2 1 1 2 3
19 18 18 16 17 18 19 18 18 17 17 15 13 10 8 6 6 6 7 6 7 6 6 5 5 5 6 5 2 2 2 2 3 2 1 0 2 3 4 4 6 10 11
23 17 15 15 15 18 19 18 19 18 17 15 12 10 7 6 6 6 6 7 6 6 6 6 5 4 4 1 1 1 0 2 4 5 5 3 4 5 8 10 10 10 10
16 24 24 16 18 18 20 20 19 18 16 15 12 9 7 7 6 6 7 7 8 7 7 7 6 7 3 3 5 5 5 6 9 8 6 7 8 10 9 9 8 6 5
13 21 27 30 29 22 18 20 21 19 18 15 12 10 8 8 7 7 8 8 9 7 7 8 8 8 6 4 6 7 8 9 10 14 9 6 5 6 4 3 2 2 2
Wind_Direction
201 206 198 200 198 197 196 197 202 206 210 211 216 210 216 224 228 231 223 223 239 236 232 239 245 241 235 253 261 255 260 262 265 270 269 277 278 281 266 272 276 277 272
205 210 201 202 197 199 198 203 204 207 211 211 211 208 216 218 225 232 242 238 235 232 237 244 248 251 258 252 247 253 254 257 263 270 271 272 279 274 272 278 273 268 268
205 205 201 201 203 200 203 202 205 208 207 207 212 216 218 223 235 248 251 242 236 239 245 256 259 259 260 251 250 252 259 269 273 273 275 275 273 275 274 282 288 276 271
202 203 205 205 205 201 202 204 205 210 213 216 218 222 222 232 240 244 249 241 236 244 253 254 255 256 258 258 261 263 266 262 260 268 272 270 269 271 271 272 270 276 279
202 207 209 211 209 206 206 205 204 214 221 224 226 229 234 239 248 253 244 248 251 255 255 257 262 258 251 253 256 262 262 263 262 263 270 274 275 269 273 275 275 278 271
201 206 209 211 211 210 209 209 214 221 229 232 237 237 240 245 246 244 254 258 259 260 262 262 256 264 265 264 261 265 265 269 270 263 263 266 265 263 268 268 268 274 273
203 204 205 211 209 211 214 216 217 219 222 233 236 238 244 247 249 254 256 261 271 265 266 274 271 264 265 269 271 270 266 267 272 276 275 276 277 279 279 278 274 273 267
201 202 204 209 210 206 210 213 213 215 222 226 231 238 236 237 242 266 249 256 276 262 265 269 264 264 267 266 271 274 275 277 277 277 270 274 280 279 280 281 281 279 277
200 203 207 206 205 201 203 208 208 208 217 228 224 246 219 230 241 258 252 251 258 260 261 263 262 266 268 276 277 275 272 270 277 284 284 284 281 280 279 278 272 275 277
201 205 208 210 216 220 205 205 207 212 219 225 230 246 229 242 258 261 255 246 254 266 268 269 276 274 274 283 278 271 272 272 272 268 285 294 293 289 282 275 275 271 274
200 201 199 202 214 211 200 212 207 202 224 240 252 220 243 255 256 252 260 258 252 256 259 271 279 273 277 280 280 276 274 269 277 286 293 294 293 295 290 281 277 273 278
194 194 194 201 196 198 194 202 212 233 221 233 236 235 246 244 248 257 251 244 244 247 255 265 268 272 284 284 280 276 276 275 280 280 283 282 285 284 284 274 273 279 292
187 191 199 206 181 190 200 220 212 221 227 231 232 233 237 243 250 246 237 242 248 256 256 268 282 290 294 295 291 285 276 274 276 275 274 275 274 273 267 272 270 275 285
193 196 202 207 184 190 209 204 208 212 221 228 229 223 230 237 234 237 246 249 256 272 277 279 284 292 296 295 292 292 290 274 266 267 271 274 272 268 266 254 254 261 271
190 188 191 201 208 199 189 193 199 203 205 207 213 222 224 228 235 234 233 243 254 258 271 289 289 288 291 294 291 283 279 279 281 275 275 283 274 274 272 263 251 254 261
184 182 184 188 192 186 192 192 191 203 204 198 206 197 215 221 231 246 254 258 265 268 280 284 286 290 296 296 289 277 277 282 284 286 286 290 286 274 260 261 249 257 271
182 178 181 188 183 187 191 189 193 197 199 204 208 211 220 232 240 253 258 264 267 275 281 280 281 288 292 290 279 264 262 270 279 284 286 292 293 290 268 278 272 272 283
185 188 180 181 187 187 187 187 193 197 194 201 206 214 228 249 255 252 257 264 273 282 283 279 284 288 282 289 290 289 282 281 278 283 283 285 281 277 283 285 276 279 282
196 184 188 186 186 186 187 193 196 190 182 190 214 219 231 238 249 257 261 263 258 265 271 279 285 285 282 294 286 280 281 279 282 288 291 289 286 285 282 280 280 280 282
207 202 187 183 189 183 191 193 191 190 190 192 188 202 217 228 244 255 256 257 251 262 278 283 281 280 274 279 281 279 279 284 285 286 286 284 290 289 289 288 288 290 285
227 201 199 188 191 188 189 189 193 191 186 185 186 202 210 207 225 228 231 242 246 269 281 282 281 285 284 285 289 288 274 270 277 285 288 287 286 287 282 279 283 281 287
206 208 200 199 187 187 187 190 189 188 184 187 186 202 196 206 223 235 233 237 252 266 264 278 284 287 285 293 297 279 276 270 285 290 284 286 278 271 253 226 174 146 146
200 199 195 192 191 187 185 188 188 189 187 185 183 183 193 204 221 238 241 240 242 246 259 262 269 282 279 285 299 281 243 235 245 251 276 113 159 163 144 136 129 132 127
198 188 189 194 192 192 189 193 191 190 188 184 183 184 189 206 222 237 234 242 238 242 251 249 245 247 271 255 271 19 321 130 107 109 116 138 130 120 117 120 127 134 133
200 197 207 212 212 198 197 193 195 193 190 190 185 189 202 216 227 236 237 235 232 233 253 242 244 248 233 171 176 165 136 120 124 102 95 125 126 119 126 124 128 140 139
192 204 209 212 210 205 204 203 193 194 192 196 198 198 205 226 235 233 234 231 231 237 236 245 235 224 210 176 160 145 136 125 124 131 136 125 118 126 127 143 133 208 224